Flag for Mexico Weather past 2 weeks in Ojinaga, Chihuahua, Mexico

Now
58 °F

Sunny.


Feels Like: 56 °F
Forecast: 51 / 86 °F
Wind: 10 mph from South

Location: Alpine-Casparis Municipal Airport

Current Time: Apr 20, 2015 at 9:06:12 PM

Latest Report: Apr 20, 2015 at 8:15 PM


Visibility: 10 mi

Pressure: 30.02 "Hg

Humidity: 59%

Dew point: 44 °F

Location of OjinagaLocation

Historic Weather in Ojinaga — Graph

°F

Ojinaga temperature yesterday

Maximum temperature yesterday: 76 °F (at 12:35 PM)
Minimum temperature yesterday: 50 °F (at 11:35 PM)
Average temperature yesterday: 65 °F

Past Weeks' High & Low Weather Summary

 TemperatureHumidityPressure
High86 °F (Apr 7, 4:15 PM)99% (Apr 14, 1:15 AM)30.32 "Hg (Apr 14, 1:15 AM)
Low42 °F (Apr 18, 6:35 AM)10% (Apr 9, 1:55 PM)29.91 "Hg (Apr 8, 6:35 PM)
Average63 °F50%30.07 "Hg
* Reported Apr 5 7:15 PM — Apr 20 7:55 PM, Ojinaga, Weather by CustomWeather, © 2015

Note: Actual official high and low records may vary slightly from our data, if they occured in-between our weather recording intervals... More about our weather records

Advertising

Ojinaga weather history for previous 24 hours

 ConditionsComfort  
Time TempWeatherWind HumidityBarometerVisibility
7:55 PM
Mon, Apr 20
60 °FSunny.7 mph56%30.01 "Hg10 mi
7:35 PM61 °FSunny.7 mph51%30.01 "Hg10 mi
7:15 PM64 °FSunny.10 mph46%30.00 "Hg10 mi
6:55 PM66 °FSunny.9 mph42%29.99 "Hg10 mi
6:35 PM67 °FSunny.9 mph39%29.99 "Hg10 mi
6:15 PM67 °FSunny.9 mph39%29.99 "Hg10 mi
5:55 PM69 °FSunny.13 mph36%29.99 "Hg10 mi
5:35 PM70 °FSunny.10 mph34%29.98 "Hg10 mi
5:15 PM70 °FSunny.6 mph32%29.99 "Hg10 mi
4:55 PM71 °FSunny.10 mph32%29.98 "Hg10 mi
4:35 PM71 °FSunny.8 mph33%29.99 "Hg10 mi
4:15 PM71 °FSunny.9 mph34%30.00 "Hg10 mi
3:15 PM71 °FSunny.8 mph34%30.00 "Hg10 mi
2:55 PM70 °FSunny.9 mph33%30.01 "Hg10 mi
2:35 PM70 °FSunny.9 mph33%30.02 "Hg10 mi
2:15 PM70 °FSunny.9 mph33%30.03 "Hg10 mi
1:55 PM71 °FSunny.12 mph33%30.03 "Hg10 mi
1:35 PM71 °FSunny.9 mph33%30.03 "Hg10 mi
1:15 PM70 °FSunny.6 mph33%30.04 "Hg10 mi
12:55 PM68 °FSunny.No wind34%30.06 "Hg10 mi
12:35 PM68 °FSunny.6 mph35%30.07 "Hg10 mi
12:15 PM67 °FScattered clouds.No wind35%30.07 "Hg10 mi
11:55 AM67 °FScattered clouds.7 mph36%30.08 "Hg10 mi
11:35 AM65 °FSunny.10 mph39%30.09 "Hg10 mi
11:15 AM64 °FSunny.6 mph41%30.09 "Hg10 mi
10:55 AM62 °FSunny.No wind43%30.11 "Hg10 mi
10:35 AM62 °FScattered clouds.3 mph44%30.11 "Hg10 mi
10:15 AM60 °FScattered clouds.5 mph45%30.11 "Hg10 mi
9:55 AM59 °FSunny.No wind46%30.11 "Hg10 mi
9:35 AM58 °FSunny.No wind46%30.11 "Hg10 mi
9:15 AM57 °FSunny.9 mph52%30.11 "Hg10 mi
8:55 AM56 °FSunny.8 mph53%30.11 "Hg10 mi
8:35 AM55 °FSunny.6 mph53%30.12 "Hg10 mi
8:15 AM52 °FSunny.5 mph61%30.11 "Hg10 mi
7:55 AM49 °FSunny.No wind66%30.12 "Hg10 mi
7:15 AM46 °FClear.No wind74%30.11 "Hg10 mi
6:55 AM46 °FClear.No wind68%30.10 "Hg10 mi
6:35 AM44 °FClear.No wind72%30.09 "Hg10 mi
6:15 AM46 °FClear.No wind67%30.08 "Hg10 mi
5:55 AM45 °FClear.No wind68%30.08 "Hg10 mi
5:35 AM45 °FClear.No wind68%30.07 "Hg10 mi
5:15 AM46 °FClear.5 mph65%30.07 "Hg10 mi
4:55 AM45 °FClear.5 mph68%30.07 "Hg10 mi
4:35 AM45 °FClear.5 mph67%30.07 "Hg10 mi
4:15 AM45 °FClear.No wind66%30.07 "Hg10 mi
3:55 AM47 °FClear.No wind61%30.08 "Hg10 mi
3:35 AM48 °FClear.No wind61%30.08 "Hg10 mi
3:15 AM47 °FClear.No wind61%30.08 "Hg10 mi
2:55 AM47 °FClear.No wind61%30.08 "Hg10 mi
2:35 AM45 °FClear.No wind67%30.08 "Hg10 mi
2:15 AM45 °FClear.No wind65%30.08 "Hg10 mi
1:55 AM47 °FClear.No wind62%30.08 "Hg10 mi
1:35 AM46 °FClear.7 mph64%30.08 "Hg10 mi
1:15 AM46 °FClear.5 mph62%30.09 "Hg10 mi
12:55 AM47 °FClear.No wind61%30.09 "Hg10 mi
12:35 AM47 °FClear.No wind60%30.09 "Hg10 mi
12:15 AM49 °FClear.3 mph53%30.09 "Hg10 mi
11:55 PM
Sun, Apr 19
50 °FClear.6 mph52%30.09 "Hg10 mi
11:35 PM50 °FClear.7 mph54%30.08 "Hg10 mi
11:15 PM50 °FClear.7 mph52%30.09 "Hg10 mi
10:55 PM51 °FClear.6 mph51%30.09 "Hg10 mi
10:35 PM51 °FClear.5 mph51%30.09 "Hg10 mi
10:15 PM51 °FClear.3 mph53%30.08 "Hg10 mi
9:55 PM54 °FClear.No wind45%30.08 "Hg10 mi
9:15 PM56 °FClear.No wind43%30.08 "Hg10 mi
Weather by CustomWeather, © 2015

See weather overviewHow to use our weather pages